Flag for Indonesia Weather past 2 weeks in Madiun, Java, Indonesia

Now
75 °F

Fog.


Feels Like: 74 °F
Forecast: 69 / 94 °F
Wind: 2 mph from South

Location: Jakarta / Soekarno-Hatta

Current Time: Aug 2, 2015 at 5:55:26 AM

Latest Report: Aug 2, 2015 at 5:00 AM


Visibility: 2 mi

Pressure: 29.89 "Hg

Humidity: 94%

Dew point: 73 °F

Location of MadiunLocation

Historic Weather in Madiun — Graph

°F

Madiun temperature yesterday

Maximum temperature yesterday: 90 °F (at 11:00 AM)
Minimum temperature yesterday: 75 °F (at 3:00 AM)
Average temperature yesterday: 82 °F

Past Weeks' High & Low Weather Summary

 TemperatureHumidityPressure
High93 °F (Jul 29, 12:00 PM)94% (Jul 25, 5:00 AM)29.98 "Hg (Jul 25, 5:00 AM)
Low73 °F (Jul 18, 4:00 AM)44% (Jul 29, 12:00 PM)29.77 "Hg (Jul 18, 3:00 PM)
Average83 °F72%29.88 "Hg
* Reported Jul 18 4:00 AM — Aug 2 4:00 AM, Madiun, Weather by CustomWeather, © 2015

Note: Actual official high and low records may vary slightly from our data, if they occured in-between our weather recording intervals... More about our weather records

Advertising

Madiun weather history for previous 24 hours

 ConditionsComfort  
Time TempWeatherWind HumidityBarometerVisibility
4:00 AM
Sun, Aug 2
77 °FFog.3 mph89%29.89 "Hg1 mi
3:30 AM77 °FFog.2 mph89%29.86 "Hg2 mi
3:00 AM75 °FFog.2 mph94%29.89 "Hg2 mi
2:30 AM77 °FFog.1 mph89%29.89 "Hg3 mi
2:00 AM77 °FFog.2 mph89%29.89 "Hg3 mi
1:30 AM77 °FFog.2 mph89%29.89 "Hg3 mi
1:00 AM77 °FFog.2 mph89%29.89 "Hg3 mi
12:30 AM75 °FFog.3 mph94%29.89 "Hg3 mi
12:00 AM77 °FLight rain. Passing clouds.2 mph89%29.92 "Hg4 mi
11:30 PM
Sat, Aug 1
79 °FRain. Passing clouds.3 mph79%29.92 "Hg4 mi
11:00 PM77 °FPassing clouds.2 mph83%29.92 "Hg5 mi
10:00 PM79 °FRain. Passing clouds.5 mph84%29.92 "Hg3 mi
9:30 PM81 °FLight rain. Passing clouds.7 mph79%29.92 "Hg4 mi
9:00 PM81 °FPassing clouds.3 mph79%29.92 "Hg5 mi
8:30 PM81 °FPassing clouds.3 mph79%29.89 "Hg5 mi
8:00 PM79 °FPassing clouds.7 mph84%29.89 "Hg4 mi
7:30 PM82 °FPassing clouds.7 mph74%29.89 "Hg4 mi
7:00 PM82 °FPassing clouds.7 mph74%29.86 "Hg4 mi
6:30 PM82 °FPassing clouds.8 mph74%29.86 "Hg5 mi
6:00 PM82 °FPassing clouds.9 mph74%29.83 "Hg6 mi
5:30 PM82 °FPassing clouds.10 mph74%29.83 "Hg6 mi
5:00 PM84 °FPassing clouds.13 mph66%29.83 "Hg6 mi
4:00 PM86 °FPassing clouds.14 mph62%29.80 "HgN/A
3:30 PM86 °FPassing clouds.15 mph62%29.80 "HgN/A
3:00 PM88 °FPassing clouds.14 mph59%29.80 "HgN/A
2:30 PM88 °FPassing clouds.14 mph59%29.80 "HgN/A
2:00 PM88 °FPassing clouds.14 mph55%29.83 "HgN/A
1:30 PM90 °FPassing clouds.13 mph55%29.83 "HgN/A
1:00 PM90 °FPassing clouds.12 mph55%29.86 "HgN/A
12:30 PM90 °FPassing clouds.10 mph55%29.86 "HgN/A
12:00 PM90 °FPassing clouds.12 mph55%29.86 "HgN/A
11:30 AM90 °FHot.10 mph55%29.89 "Hg6 mi
11:00 AM90 °FPassing clouds.9 mph55%29.89 "Hg5 mi
10:00 AM86 °FPassing clouds.10 mph62%29.92 "Hg4 mi
9:30 AM84 °FPassing clouds.5 mph66%29.92 "Hg4 mi
9:00 AM84 °FHaze.5 mph66%29.92 "Hg3 mi
8:30 AM82 °FHaze.3 mph70%29.92 "Hg3 mi
8:00 AM81 °FHaze.6 mph74%29.92 "Hg2 mi
7:30 AM79 °FHaze.2 mph79%29.89 "Hg2 mi
7:00 AM77 °FHaze.2 mph83%29.89 "Hg3 mi
6:30 AM75 °FFog.2 mph89%29.89 "Hg3 mi
6:00 AM75 °FFog.5 mph89%29.89 "Hg3 mi
5:30 AM75 °FFog.2 mph89%29.89 "Hg3 mi
5:00 AM75 °FFog.3 mph89%29.89 "Hg2 mi
Weather by CustomWeather, © 2015

See weather overviewHow to use our weather pages